Wind_Gust
17 17 19 16 15 13 10 11 11 10 10 11 12 10 9 10 10 8 8 8 11 11 13 17 13 10 12 12 10 8 12 10 11 7 7 5 6 8 6 7 7 9 10 10 11 11 11 9 9 11 11 12 14 15 12 13 16 15 14 13 16 17 18 18 21 15 17 19 15 15 16 15 16 19 20 21 20 18 17 18 16 19 18 18 19
18 19 21 17 16 17 12 11 11 11 10 12 11 11 11 11 10 9 11 12 10 12 13 13 14 16 13 12 13 12 11 10 7 6 8 10 7 6 6 5 7 10 9 9 10 10 12 12 10 9 11 11 13 14 14 13 16 16 16 15 14 16 16 18 20 19 19 19 19 21 20 17 12 17 21 21 20 20 17 18 18 19 21 19 22
16 17 17 19 19 21 14 11 11 13 12 14 11 9 9 9 8 8 12 13 14 13 12 12 9 11 13 15 12 12 8 7 10 11 11 11 8 9 12 14 14 11 9 9 12 10 11 11 11 9 10 11 12 13 14 14 14 15 15 16 14 15 14 16 18 18 18 14 10 12 17 25 24 22 21 21 21 20 19 20 21 19 21 19 17
16 15 14 18 22 15 15 12 13 11 10 11 11 9 9 9 8 9 10 10 10 10 11 10 10 11 11 12 7 7 9 9 8 10 8 12 14 13 12 12 10 10 11 12 13 10 11 12 11 10 10 10 11 12 13 16 14 15 16 18 13 16 18 15 16 18 19 20 19 14 14 11 14 18 23 20 19 21 22 21 21 21 21 21 20
17 19 19 16 16 15 14 12 13 13 11 12 13 10 12 12 11 11 12 10 11 9 8 9 10 10 9 10 9 9 8 8 11 9 7 7 9 10 11 12 12 12 10 13 13 10 10 12 12 11 12 11 11 12 12 14 12 13 15 15 15 14 14 14 16 18 18 15 14 14 13 14 11 17 18 12 20 18 21 20 22 23 22 21 21
19 18 18 18 17 14 11 11 11 13 11 13 15 13 11 11 12 9 8 8 8 7 8 11 10 11 11 12 13 12 11 8 9 8 9 10 9 8 10 10 12 14 12 11 12 11 12 12 12 12 11 12 13 11 10 11 12 14 14 13 15 14 14 15 17 17 17 17 15 12 8 10 15 15 15 21 12 10 16 17 19 21 21 20 22
17 16 19 20 17 15 11 12 14 13 12 13 12 11 13 15 10 12 9 7 7 7 7 10 9 10 10 12 12 10 9 7 4 4 8 6 8 11 9 9 12 11 10 10 11 10 11 12 13 12 12 11 13 13 12 11 12 15 14 13 14 14 13 17 15 15 13 15 16 15 14 11 14 15 15 16 19 14 14 19 20 20 20 19 25
19 19 18 20 17 16 15 14 13 15 14 15 11 10 13 12 13 11 8 7 7 9 12 13 13 11 12 12 10 10 10 8 7 6 5 8 11 9 9 9 9 9 11 10 11 10 11 12 13 12 13 12 13 13 13 11 12 12 13 13 12 12 12 13 11 14 15 16 15 16 15 12 15 12 13 13 14 22 20 12 10 18 19 16 22
20 20 20 20 16 16 16 16 15 15 13 13 12 13 11 11 12 11 9 7 9 11 10 11 11 11 12 10 9 8 8 6 5 5 8 8 9 8 9 6 9 10 10 10 11 11 11 11 12 12 12 12 12 12 13 13 12 12 13 15 12 12 11 11 12 12 12 13 14 15 13 12 13 11 13 12 15 20 18 20 22 15 10 12 19
21 21 21 21 16 18 17 18 16 13 11 12 14 13 11 12 12 10 9 9 11 9 10 9 9 9 10 10 9 9 8 6 6 7 7 5 8 6 7 8 9 10 10 10 11 11 11 10 12 14 12 12 13 12 12 13 10 12 12 12 12 11 9 11 11 9 10 10 11 11 13 11 11 13 13 16 12 11 16 23 22 24 25 22 13
21 22 20 20 17 21 20 18 16 13 11 13 12 15 11 11 11 11 9 9 9 9 9 8 7 7 9 9 10 9 8 8 7 6 4 5 8 7 8 7 8 10 10 10 11 11 10 10 10 12 11 11 12 11 11 12 11 11 10 11 11 11 10 10 11 9 10 11 13 12 13 12 13 14 12 13 12 13 15 15 17 16 19 21 18
23 24 23 21 18 21 19 18 17 15 11 15 12 14 12 11 10 11 9 9 7 9 8 8 7 7 6 8 9 9 8 8 8 8 8 7 7 7 6 9 8 10 10 9 9 9 10 9 10 9 10 10 11 10 11 11 10 11 9 9 10 10 10 11 10 10 10 10 9 11 13 9 12 11 12 10 12 11 11 15 17 18 16 16 20
24 22 24 22 22 21 20 18 17 16 14 15 14 14 12 11 11 10 10 10 9 8 8 7 8 7 9 9 9 11 8 7 7 6 6 8 7 7 7 9 9 10 9 11 8 9 9 10 10 10 10 9 9 10 10 10 10 11 10 7 8 9 10 9 10 9 9 10 9 10 12 11 12 10 9 11 11 9 11 14 14 16 19 20 17
24 25 25 24 23 23 23 21 21 17 14 16 16 13 11 12 11 12 11 10 9 8 9 8 8 9 8 9 9 9 7 6 7 7 7 8 9 9 8 9 10 10 9 9 8 10 10 9 9 9 9 8 8 9 10 9 8 10 10 9 6 6 9 8 9 9 10 8 8 10 13 11 11 11 9 10 11 12 13 13 16 16 15 17 17
26 26 25 25 21 20 23 20 20 19 16 16 16 16 14 13 12 12 12 10 10 9 8 9 9 8 8 10 11 7 8 9 9 8 9 7 6 8 6 8 11 8 10 8 9 10 9 10 9 9 10 9 9 9 10 10 8 8 9 9 9 7 7 9 9 11 12 11 8 8 12 11 11 11 11 11 10 10 11 12 15 19 18 13 17
24 25 23 23 20 20 22 18 19 19 17 16 16 16 14 14 13 13 13 11 11 10 8 9 8 8 5 5 8 7 6 8 8 7 6 8 8 10 9 10 11 11 9 11 9 10 9 10 10 10 9 9 10 10 9 9 9 8 8 8 7 9 9 7 6 11 10 8 7 7 11 9 10 11 11 11 10 8 10 10 13 13 19 23 16
24 25 24 24 22 21 23 19 19 20 21 19 16 17 15 14 14 12 13 11 11 10 10 8 8 7 7 6 6 6 6 7 9 7 7 7 9 10 12 11 10 11 11 9 10 8 9 10 9 9 8 7 9 10 10 8 7 8 8 8 8 6 10 6 7 9 7 8 8 7 9 9 9 11 11 12 9 10 11 11 11 13 14 18 23
24 25 25 25 23 24 23 23 22 19 20 19 16 15 17 15 15 16 13 12 12 13 11 9 10 8 8 6 6 7 10 7 7 7 6 9 8 11 11 11 10 10 11 10 11 10 9 10 9 9 8 7 7 7 9 8 7 8 7 7 7 7 9 8 7 7 8 9 9 8 9 8 9 11 12 11 9 10 11 12 11 12 10 14 17
24 25 27 25 22 25 22 22 24 21 19 21 19 17 19 14 17 15 16 15 13 13 9 9 9 9 9 8 6 7 7 7 7 7 7 9 9 10 11 11 11 10 12 11 11 10 9 8 9 8 8 8 8 7 6 7 7 7 7 8 7 7 9 7 6 6 6 9 9 7 7 7 8 10 11 11 9 10 11 13 13 11 12 11 13
26 24 26 26 24 24 22 22 24 24 24 23 19 18 19 16 16 14 16 15 12 14 11 10 13 11 11 8 8 9 7 7 8 8 8 9 12 13 12 10 10 10 9 10 11 10 9 9 7 9 8 7 7 7 7 5 5 6 6 8 7 7 8 6 6 6 7 8 8 8 9 9 9 10 12 11 11 12 11 14 14 13 13 12 13
27 25 26 26 23 22 22 21 24 24 22 21 22 18 20 17 15 15 17 15 14 15 12 11 10 11 10 13 11 9 9 8 6 7 8 9 12 12 11 11 10 10 10 11 10 10 9 9 9 8 8 7 7 6 6 7 6 6 5 5 6 7 8 6 6 6 7 7 9 9 10 10 9 10 11 11 12 14 15 14 14 14 14 14 16
24 24 23 25 23 22 23 24 22 26 23 24 23 19 21 19 16 15 16 16 15 15 13 12 10 11 10 13 10 8 8 7 7 8 10 13 11 12 11 11 10 8 11 12 11 9 9 10 9 8 8 7 8 6 6 7 7 7 6 6 5 6 5 5 5 6 8 8 7 8 10 9 9 11 12 15 15 15 16 16 15 16 15 16 15
25 24 25 24 22 22 24 24 24 25 22 20 21 19 19 19 15 15 17 15 15 17 14 12 12 11 11 14 11 10 9 8 8 8 12 12 12 10 11 12 11 9 8 11 11 10 10 10 9 8 7 7 7 6 6 6 6 6 6 5 5 5 4 5 7 7 9 7 8 7 8 8 9 10 11 12 12 13 14 15 16 16 16 16 17
21 25 24 24 23 20 22 23 24 25 21 21 21 20 17 19 16 15 18 18 15 14 14 12 11 12 12 11 11 10 9 9 10 12 11 11 11 11 11 11 10 10 11 9 10 10 9 9 9 7 7 6 5 5 6 6 4 6 6 5 5 5 5 5 6 8 8 8 8 7 7 7 8 8 10 11 12 12 12 14 15 15 16 17 16
22 25 24 23 23 24 24 23 23 26 23 21 24 22 18 18 16 16 17 17 16 14 14 14 13 13 11 11 12 11 10 9 11 14 13 12 11 11 10 12 11 10 9 10 8 9 9 9 10 8 8 9 10 11 10 9 8 6 5 4 5 5 5 6 5 7 9 7 7 7 8 6 8 8 7 9 11 12 13 12 15 16 17 16 17
22 24 23 24 25 24 22 21 22 25 24 23 22 20 18 18 18 16 17 16 16 14 15 15 13 13 12 12 12 11 11 11 14 13 14 13 13 12 11 10 12 12 9 9 10 7 9 9 9 10 10 11 11 10 9 10 10 10 8 7 5 4 5 5 6 6 7 7 6 7 8 6 8 7 7 8 9 11 12 14 15 16 17 16 17
24 25 25 21 19 22 23 23 23 22 20 22 23 20 18 20 18 17 17 18 17 16 15 15 14 14 12 12 13 14 13 14 15 14 13 12 13 12 13 14 11 12 11 9 9 9 9 11 10 11 11 12 11 10 9 10 11 11 11 9 9 6 5 5 6 7 7 7 7 8 7 7 8 7 6 7 9 9 12 14 15 16 16 16 17
21 21 22 24 24 23 22 23 21 23 21 23 24 21 20 20 20 19 18 18 17 16 16 15 14 14 14 14 14 13 13 15 14 14 13 13 13 12 12 11 11 11 11 10 11 12 9 11 11 11 11 12 11 10 10 11 11 11 11 10 9 7 6 5 5 6 7 7 7 8 8 8 8 6 8 7 9 9 10 12 14 14 16 16 16
23 24 25 24 23 22 22 22 23 21 21 23 23 20 17 17 18 19 17 19 18 17 17 16 15 16 16 15 13 19 14 15 15 14 14 14 13 12 11 11 10 10 10 10 11 13 12 12 11 11 11 11 10 9 10 10 10 11 10 10 10 9 8 5 5 7 7 7 7 8 9 9 12 15 18 15 14 17 15 15 15 13 15 15 16
23 25 24 24 25 24 23 22 20 22 23 23 23 21 22 20 19 19 18 19 18 19 19 17 17 18 17 14 18 16 16 16 16 16 15 14 13 13 13 11 11 11 11 12 11 11 12 12 12 11 10 10 9 8 11 14 11 10 9 10 11 10 8 6 5 5 6 6 7 9 12 19 16 17 18 14 17 21 23 21 18 16 16 16 17
22 22 23 23 23 23 21 19 21 23 23 25 24 23 21 20 20 20 21 20 20 19 19 19 19 18 16 17 20 18 17 17 15 14 13 14 14 13 13 12 11 11 12 11 12 12 11 11 12 11 10 9 8 8 10 8 8 12 9 7 9 10 9 7 5 5 6 7 6 8 7 13 12 14 15 15 17 19 21 23 25 25 22 21 19
22 22 22 20 21 20 19 20 21 23 23 23 23 22 20 21 19 20 21 20 20 19 19 19 20 16 16 19 18 18 17 16 16 16 15 14 14 13 13 12 12 11 11 11 12 11 11 11 11 11 10 8 6 8 6 7 8 9 10 9 7 9 9 7 7 5 6 6 6 6 6 10 8 13 10 11 15 20 21 23 24 24 22 23 17
21 22 22 21 22 21 21 21 20 25 24 23 24 22 22 21 20 21 19 18 20 20 19 19 17 15 18 19 19 19 17 17 16 16 15 15 15 13 13 13 13 12 10 12 11 12 11 11 12 11 9 8 6 8 6 7 7 8 9 10 7 9 9 9 8 7 6 8 8 6 5 8 11 15 11 11 13 17 20 24 25 24 22 20 17
22 21 24 23 23 21 20 20 21 22 24 23 22 24 24 21 22 20 20 20 20 19 19 19 16 15 19 19 19 19 19 18 17 16 16 15 15 16 13 12 12 10 12 10 10 12 11 11 11 10 10 9 6 9 8 6 7 8 8 8 7 8 9 10 10 9 8 8 9 8 5 5 6 9 9 11 12 14 16 18 18 17 16 19 18
18 19 20 21 20 19 17 16 18 22 21 20 19 19 19 17 17 18 19 20 19 20 19 17 16 16 19 18 19 19 19 18 17 17 16 16 15 13 13 13 15 15 15 15 14 13 11 11 11 11 10 8 8 10 9 7 6 7 9 9 7 9 10 12 12 11 11 9 10 7 6 7 7 8 8 13 11 12 14 17 17 17 17 16 17
19 21 23 23 21 21 20 19 17 18 19 21 22 19 18 19 17 19 19 19 19 19 19 17 16 18 20 20 20 20 19 18 19 17 17 16 15 16 16 13 12 10 9 9 8 11 12 11 11 11 10 8 6 9 9 9 7 7 10 9 8 10 13 13 11 10 9 9 6 8 8 8 7 6 12 13 12 14 12 15 17 17 18 16 14
21 22 23 24 23 21 22 18 15 17 19 20 20 19 20 18 17 19 20 19 19 19 19 19 18 19 20 21 21 22 21 20 19 19 17 17 16 14 12 12 13 12 13 12 13 11 11 13 12 11 11 9 7 9 10 9 8 8 7 7 8 11 11 7 6 8 7 5 8 8 9 8 6 6 11 10 12 15 11 14 16 17 18 17 18
18 15 15 16 18 19 17 19 16 16 19 19 17 19 18 17 18 18 18 18 19 21 20 20 19 20 21 21 21 22 22 20 19 21 19 16 14 12 15 15 17 15 14 13 11 10 9 13 13 12 13 11 10 11 12 10 9 8 9 7 8 11 9 6 8 8 7 9 11 14 12 8 7 6 8 8 10 12 10 12 14 17 19 19 19
21 20 16 16 16 18 18 16 15 15 15 14 15 16 18 17 16 16 17 19 21 22 20 20 20 20 20 20 20 20 21 22 22 20 19 19 19 19 14 12 12 13 12 10 11 11 9 10 12 12 17 14 11 10 13 12 10 9 8 6 8 10 5 7 8 10 8 9 9 12 13 9 8 8 9 8 9 10 8 10 13 16 17 18 20
17 17 17 17 14 12 15 13 15 17 14 14 14 15 14 16 15 14 16 19 22 23 22 21 19 19 18 19 19 21 21 22 21 17 16 17 15 14 14 14 11 12 12 11 10 11 11 11 10 12 13 13 12 9 11 13 10 10 10 8 8 7 6 6 8 9 12 3 11 9 7 8 10 9 9 9 10 10 8 10 12 14 15 20 20
17 18 13 16 16 18 20 18 19 17 13 13 13 14 15 15 15 15 17 18 17 16 18 18 19 19 19 19 19 21 22 18 18 19 17 15 16 17 14 14 13 12 11 11 11 10 11 10 10 10 11 11 13 12 11 13 13 11 11 10 7 7 6 6 7 9 10 7 7 8 10 9 11 12 11 12 13 14 13 12 12 13 16 22 22
14 18 15 14 16 14 14 13 14 16 14 13 13 15 15 13 12 17 19 17 15 18 19 19 19 20 19 19 19 16 17 18 17 17 18 16 13 14 15 14 12 12 12 12 9 11 11 11 9 10 11 12 13 17 11 13 14 13 12 12 8 9 8 7 7 9 9 7 8 5 7 10 13 13 12 14 17 16 16 15 17 16 21 23 26
12 10 12 15 11 15 15 15 15 16 15 12 13 13 13 11 14 19 15 12 17 17 19 19 19 19 18 18 17 18 18 17 17 17 17 16 14 14 13 13 13 12 13 13 11 11 11 11 10 11 10 11 11 12 15 13 14 15 14 12 12 9 8 7 7 8 8 9 8 6 8 9 11 14 15 16 18 19 16 14 17 18 20 24 21
9 13 14 11 13 14 15 11 13 12 13 13 16 16 13 12 18 12 13 14 16 17 18 17 16 17 17 16 17 16 15 15 17 17 16 16 15 14 13 14 14 14 14 13 12 12 11 12 14 13 11 11 12 11 12 15 14 17 15 15 14 13 10 8 8 10 9 10 10 7 7 12 16 17 18 18 18 17 18 19 20 20 20 19 16
7 6 6 8 15 14 12 8 8 9 8 8 9 12 10 9 9 12 14 15 16 16 17 17 17 17 16 18 16 16 15 16 16 18 18 17 14 14 15 12 13 13 13 15 14 13 14 14 13 15 14 12 14 13 12 14 16 16 17 16 15 14 13 10 9 10 8 9 8 11 14 17 18 20 20 19 15 17 20 16 14 16 18 11 10
7 7 8 9 12 12 11 11 9 8 9 9 8 14 13 9 12 12 14 16 17 17 16 17 17 16 17 19 18 16 16 15 15 15 17 17 19 18 17 15 14 14 14 15 15 14 14 13 15 15 15 15 14 14 14 14 12 12 12 16 17 15 13 14 14 12 11 16 18 19 20 20 18 18 17 13 12 12 14 21 18 12 7 11 7
7 9 9 10 13 12 11 11 11 8 10 9 9 10 13 13 12 14 14 15 16 17 16 15 16 16 15 16 17 16 15 15 13 13 13 14 14 15 15 15 16 15 14 15 14 14 15 14 16 16 14 13 13 15 15 14 14 13 13 13 14 14 13 11 11 13 12 13 12 12 12 15 16 19 20 19 19 18 15 8 6 8 9 10 8
8 9 10 10 11 12 12 12 12 10 10 11 12 13 14 14 14 14 14 15 16 16 18 16 16 16 16 16 15 14 17 16 15 16 16 14 15 16 17 20 21 21 19 18 17 17 19 19 19 16 13 12 14 14 16 17 16 16 15 14 13 13 13 13 14 13 13 10 11 10 14 17 17 15 13 5 3 4 6 6 7 9 10 7 9
8 8 10 13 10 12 12 11 11 10 11 12 12 13 14 13 15 15 16 16 16 14 15 15 16 16 15 14 14 16 16 16 15 14 15 19 22 21 21 18 15 16 21 23 21 21 20 19 18 17 16 16 15 18 25 16 22 17 22 18 16 17 15 14 16 12 8 9 10 12 14 15 12 9 8 10 6 4 6 7 7 9 10 8 8
8 8 8 9 9 12 12 11 11 10 12 13 14 15 15 15 15 16 16 17 16 16 14 16 16 16 15 16 14 16 16 15 16 16 15 12 9 10 13 18 18 15 17 17 14 24 23 19 18 19 19 23 24 26 15 22 22 22 22 22 20 19 17 16 12 12 9 8 11 12 14 15 13 10 10 9 9 7 6 7 9 8 8 7 8
9 9 9 9 9 12 11 11 11 10 12 13 14 15 16 16 15 15 17 17 18 16 15 16 16 16 17 17 16 17 17 16 16 16 15 15 12 10 10 13 12 14 17 20 19 20 17 17 21 19 17 21 20 18 17 24 24 24 24 23 21 19 17 15 13 12 6 11 12 12 13 13 11 10 10 11 9 8 7 7 10 10 7 7 7
Wind_Speed
6 6 7 6 6 5 6 7 6 5 5 5 5 5 5 4 6 5 2 4 7 6 4 6 6 3 3 2 2 0 1 1 1 1 2 2 2 3 3 4 4 4 4 5 6 5 5 5 5 5 5 6 6 6 5 6 6 6 5 6 8 8 9 9 11 4 5 5 3 4 4 4 8 10 11 10 10 8 8 8 7 8 9 9 8
6 5 5 5 5 6 6 7 6 7 4 5 5 5 4 5 6 4 3 4 6 7 5 4 4 6 6 5 2 1 1 2 1 2 2 3 4 3 3 3 4 4 4 4 5 5 6 6 5 5 5 6 6 5 6 7 7 8 6 7 6 7 7 9 10 5 7 3 3 6 5 3 5 8 12 10 10 9 8 9 8 9 10 8 7
5 6 5 6 6 6 5 5 5 7 5 5 5 5 4 6 5 4 4 5 6 7 6 5 2 2 3 3 4 1 1 0 2 2 3 5 4 3 3 4 4 4 4 4 5 5 6 6 5 5 5 5 6 7 7 8 8 9 9 7 6 5 6 7 10 9 5 3 1 3 4 6 4 5 6 8 9 9 9 10 10 9 10 9 7
8 8 7 6 6 5 6 6 6 6 6 4 4 6 5 5 4 4 4 4 5 5 6 5 4 1 2 3 1 1 1 0 3 3 3 3 2 2 3 4 5 5 5 5 5 6 6 6 5 6 6 5 6 7 7 8 8 8 8 9 5 8 6 8 8 9 8 5 5 3 1 2 4 5 8 4 6 8 10 10 9 9 9 10 8
10 8 6 6 6 6 8 8 6 7 6 5 4 5 5 5 5 5 5 5 4 4 5 5 5 4 3 3 2 2 2 3 4 4 3 4 3 5 3 4 5 6 5 5 5 6 5 5 6 6 7 6 6 7 7 7 7 7 7 8 9 6 7 5 8 9 10 8 3 3 4 5 1 5 6 4 4 6 10 9 10 11 10 10 8
13 11 10 9 8 6 7 7 6 6 6 5 5 6 6 4 4 4 3 4 4 4 4 6 5 5 3 3 2 2 3 3 5 4 3 4 4 0 3 4 5 5 5 6 6 6 7 6 6 7 6 6 6 6 6 6 7 8 7 7 8 6 5 8 7 7 7 10 9 6 3 3 2 4 5 5 3 3 8 8 10 11 9 10 9
9 9 9 9 7 8 6 6 7 7 5 5 6 6 6 5 4 4 4 2 3 4 4 6 5 4 5 5 4 4 3 1 1 1 4 2 1 3 4 4 5 6 5 5 6 6 6 6 6 6 6 6 6 6 6 6 7 6 6 7 6 6 6 9 8 6 4 8 7 7 6 4 4 5 4 4 6 4 5 9 9 10 9 9 10
11 11 11 10 9 10 9 8 7 8 6 7 7 6 6 5 5 4 3 3 3 4 5 6 6 4 5 4 4 4 3 3 3 3 3 3 3 3 4 4 4 5 6 5 6 6 6 6 6 6 6 6 6 6 6 5 6 6 6 6 6 6 6 7 6 6 7 4 5 6 5 4 5 5 3 2 1 6 9 6 3 8 8 6 8
13 12 11 10 9 8 9 9 8 7 7 8 7 7 6 5 4 3 3 3 3 5 5 5 6 6 6 5 4 3 3 3 1 2 3 2 4 2 4 4 5 5 5 6 5 6 6 6 6 6 6 5 5 6 5 6 7 7 7 8 7 7 6 5 6 7 7 6 5 6 5 5 4 4 4 3 4 3 2 7 11 8 4 5 8
12 13 12 10 9 10 9 9 8 8 7 7 7 6 5 4 4 4 4 4 4 4 6 5 4 4 4 4 5 4 2 1 2 3 2 2 4 2 3 5 5 6 5 5 6 6 6 6 6 6 6 6 5 6 5 6 6 7 7 6 6 6 5 6 6 5 6 5 6 5 6 5 4 4 5 5 2 4 4 8 8 10 12 8 3
11 11 10 10 9 11 9 10 8 6 6 8 6 5 5 4 4 5 5 4 4 5 5 5 4 4 5 5 5 4 4 3 3 2 1 2 4 2 3 4 4 5 5 5 6 6 6 5 5 5 5 5 6 6 5 5 5 5 6 6 6 6 6 6 6 5 5 6 6 6 6 7 5 5 5 6 4 3 5 5 5 5 5 9 8
12 11 10 10 8 8 8 8 8 8 7 8 7 5 5 4 5 6 4 4 4 5 5 5 5 4 4 5 5 5 4 4 4 5 3 4 4 4 3 5 4 5 4 5 5 6 6 5 5 5 5 5 6 5 5 5 5 5 5 5 6 5 5 6 5 6 6 6 5 6 6 5 6 5 3 3 4 3 2 3 6 8 6 5 7
13 12 11 11 12 11 9 8 7 8 9 9 8 7 6 5 6 7 5 4 5 4 5 5 4 4 4 5 5 4 4 4 4 4 3 4 3 4 4 6 5 5 4 6 4 5 5 6 6 5 5 5 5 5 4 5 6 5 5 4 5 5 5 5 6 5 5 6 6 5 6 6 6 4 5 5 5 4 5 6 5 3 5 8 6
13 13 13 13 12 11 11 10 9 10 9 10 8 7 6 6 7 7 7 5 5 5 5 5 5 5 5 5 6 4 5 4 4 4 4 4 5 5 5 6 5 5 5 5 5 5 5 5 6 5 4 5 5 5 4 4 5 5 4 4 4 3 4 5 6 6 6 5 5 6 6 6 6 6 5 6 5 6 5 5 5 5 4 7 6
13 13 13 13 13 13 12 10 10 10 10 10 8 8 6 7 7 7 7 5 5 6 5 6 6 5 5 6 7 5 5 5 6 5 5 4 3 4 4 5 6 4 6 5 5 6 5 6 6 5 5 5 5 5 4 4 4 5 4 3 3 4 4 5 6 7 6 5 5 5 6 6 6 6 6 6 5 5 3 3 4 5 4 3 7
13 13 12 13 13 12 10 10 11 10 10 9 9 8 7 8 7 8 8 7 6 5 5 6 6 5 4 4 5 5 3 3 3 2 3 4 4 5 5 5 5 6 5 6 4 6 6 6 6 4 4 5 4 4 4 4 4 5 5 5 4 2 5 5 4 6 5 4 4 4 6 5 5 6 6 5 5 5 5 4 4 4 6 6 4
13 14 13 13 11 11 12 11 10 10 10 10 10 9 9 9 8 8 7 6 6 6 6 5 5 4 4 4 4 4 4 5 6 5 5 4 5 5 6 5 5 6 6 5 6 5 5 6 5 4 4 5 4 4 4 4 4 4 5 4 4 4 6 4 4 6 4 4 4 5 5 5 5 5 5 5 5 5 5 5 4 4 4 4 7
15 15 15 16 15 14 12 11 12 12 12 10 10 9 9 9 9 9 7 7 6 6 5 5 5 5 5 4 3 5 6 5 4 5 4 5 4 5 5 6 5 6 6 5 6 6 5 6 5 4 4 4 4 3 4 4 4 5 4 4 2 5 5 4 3 4 4 3 4 5 4 5 3 5 5 4 4 3 5 4 4 4 3 5 3
12 13 12 13 13 13 13 13 11 11 11 11 10 10 9 8 9 9 10 9 9 6 5 5 5 5 4 5 4 4 4 4 4 4 4 6 6 6 6 6 5 5 7 6 6 6 6 4 5 5 4 4 3 2 3 4 4 4 4 5 4 5 5 4 3 3 3 4 3 4 3 3 3 4 4 3 3 3 3 3 3 2 4 3 3
13 13 14 14 14 14 14 14 13 12 12 11 10 8 9 9 9 8 8 7 6 6 6 6 5 5 4 4 4 4 4 4 4 5 5 6 6 6 6 5 6 5 6 6 6 6 5 5 4 5 5 4 4 2 2 3 3 4 4 5 3 4 5 4 3 2 3 3 3 4 3 3 2 3 3 2 2 2 2 3 3 3 2 2 3
14 14 14 14 13 12 12 12 12 10 10 10 10 10 9 8 9 9 10 8 8 8 6 6 5 5 4 5 5 4 5 4 4 4 5 6 6 6 6 6 5 5 5 6 6 6 6 6 5 5 5 4 4 3 2 3 4 4 3 3 4 4 4 3 3 3 2 2 3 3 2 2 1 3 2 2 3 3 3 3 3 3 5 3 3
15 15 14 13 13 12 11 11 10 10 10 11 11 9 9 9 10 10 9 8 9 8 7 7 5 5 5 5 5 5 5 4 5 3 5 6 6 6 6 5 6 4 5 7 6 5 5 6 6 5 5 4 4 2 2 3 4 4 4 3 3 3 4 3 2 1 1 1 3 4 2 1 1 2 1 2 2 3 4 4 5 5 5 5 3
15 14 13 13 13 13 14 14 13 13 12 12 11 11 10 10 9 9 9 10 9 9 8 7 6 6 7 7 6 6 6 4 4 4 5 6 6 6 5 7 6 5 5 7 6 6 6 6 5 5 4 5 4 3 2 4 4 4 4 3 3 3 2 2 2 0 1 1 3 3 3 2 1 1 0 1 2 3 3 3 5 4 4 4 4
13 13 12 12 12 11 11 12 12 12 11 12 11 11 10 10 10 9 10 11 9 8 8 7 7 7 7 6 6 6 6 4 4 5 6 6 6 6 5 7 6 6 7 4 6 6 6 6 6 4 4 3 3 2 3 3 2 3 4 3 3 3 2 1 1 0 0 2 3 3 2 2 1 1 1 2 2 2 3 4 5 5 4 5 4
13 13 13 12 12 13 13 13 13 13 12 11 10 11 11 11 9 10 10 10 10 8 8 8 8 8 7 7 7 6 6 5 5 5 7 7 7 7 6 7 7 6 6 6 4 5 5 5 6 5 5 4 3 3 3 3 3 3 3 2 2 2 1 1 1 0 2 3 2 3 3 1 1 1 1 1 1 2 3 4 5 5 4 4 4
15 14 12 15 15 14 13 13 13 13 13 12 11 10 11 11 11 10 10 9 9 8 9 9 8 8 7 8 8 7 7 7 7 7 8 8 7 7 7 6 7 7 6 6 6 4 5 5 5 5 5 4 3 3 3 3 2 3 3 3 3 2 1 1 2 2 4 2 3 2 1 1 1 1 1 0 1 2 2 4 5 5 5 4 4
16 16 15 12 12 14 15 15 14 13 12 12 12 11 10 11 11 10 10 10 10 9 9 9 9 9 7 8 8 8 8 7 8 8 7 7 7 7 7 7 6 7 7 6 4 5 4 6 5 5 5 4 4 3 3 2 2 3 3 3 3 3 2 1 2 3 3 2 2 1 1 2 3 3 3 1 1 2 2 4 4 4 4 4 5
12 12 14 16 16 15 14 15 14 13 13 12 12 12 12 12 12 12 11 10 8 9 9 9 9 9 8 9 8 8 7 7 7 7 8 8 8 7 7 7 7 7 7 6 7 7 5 5 5 5 4 4 4 3 3 2 2 2 3 2 2 2 2 1 1 3 3 2 2 1 1 1 4 4 3 3 1 1 3 4 4 3 4 4 5
13 15 16 15 15 14 14 14 14 13 13 13 12 11 10 10 10 10 10 12 11 10 10 10 9 9 10 9 7 5 5 6 7 8 8 8 8 7 7 7 6 6 6 6 7 8 7 6 4 5 4 4 4 3 2 2 2 2 2 2 1 1 1 1 0 3 3 2 2 1 1 1 3 4 4 2 3 5 2 3 3 3 4 4 5
15 15 15 15 16 15 15 14 13 14 14 13 12 12 12 12 11 10 10 10 9 10 11 10 10 11 10 8 7 6 7 7 8 9 9 8 8 8 7 7 7 6 6 7 7 6 7 7 6 4 4 4 3 2 3 5 3 1 1 1 0 0 0 1 0 1 2 3 3 3 3 4 3 1 4 3 4 6 7 4 2 2 3 3 4
15 14 14 14 14 14 13 13 13 14 15 15 14 13 12 12 11 11 11 11 10 11 11 11 12 11 10 7 7 7 8 9 9 8 8 9 9 8 7 7 7 7 8 7 7 7 6 6 6 6 5 4 3 2 6 3 3 2 1 0 0 1 1 1 0 2 3 4 4 4 3 2 1 4 2 3 4 6 6 7 8 9 7 3 3
14 14 13 13 13 13 13 13 13 14 15 14 13 13 12 12 11 12 12 10 11 11 12 12 12 10 8 8 8 8 9 9 9 9 9 8 8 8 8 7 7 7 6 6 7 7 6 6 5 5 5 4 3 5 5 4 3 1 1 0 1 1 2 1 1 2 3 3 4 4 3 2 1 2 1 2 4 6 7 8 8 8 9 10 8
14 14 14 14 14 14 14 14 13 13 14 15 15 13 13 13 12 13 10 9 11 11 12 12 11 9 9 8 8 10 10 10 10 9 8 8 9 8 8 8 8 7 6 7 7 7 6 5 6 6 5 4 4 5 5 5 3 2 2 1 1 2 2 3 3 2 3 3 4 4 3 0 1 3 2 2 3 4 6 9 8 8 10 10 9
12 13 15 14 13 12 12 13 14 14 15 14 14 15 14 13 13 11 11 11 12 11 11 12 10 9 9 9 9 10 10 10 9 9 9 9 9 10 8 7 7 6 7 6 6 7 6 6 6 6 5 4 4 6 6 5 4 3 3 3 2 3 3 3 3 3 4 4 5 5 3 1 0 0 1 2 3 2 3 4 5 5 5 8 10
11 11 12 13 13 12 11 10 11 13 12 11 12 12 11 10 10 10 11 11 12 12 12 11 10 9 9 9 10 10 10 10 10 10 9 10 9 8 8 8 8 9 9 9 8 7 6 6 5 5 5 5 4 8 7 6 4 4 4 4 3 3 3 3 4 4 5 5 6 4 4 4 2 1 1 2 2 3 3 4 4 5 5 5 6
12 13 14 14 14 14 13 12 10 10 11 12 13 12 11 11 10 11 11 11 11 11 12 10 9 9 10 10 11 11 10 10 10 9 10 10 9 10 10 7 7 6 5 5 5 6 7 6 5 6 5 5 4 8 8 7 6 5 5 2 2 3 3 3 4 4 4 5 4 4 5 4 3 3 4 3 3 2 2 4 5 6 7 7 7
13 14 15 15 15 14 14 11 9 10 11 12 12 11 12 11 10 11 12 12 11 12 12 11 11 11 11 11 11 12 11 11 10 11 10 10 10 9 7 7 8 7 8 7 8 7 6 7 6 5 6 5 4 7 9 8 6 7 4 2 2 2 3 3 3 3 4 3 2 4 5 5 4 3 5 6 5 4 3 4 5 6 6 7 9
12 10 10 11 12 12 11 11 10 10 12 11 11 12 11 10 11 11 11 11 11 12 12 12 11 11 11 11 11 12 12 11 11 12 12 10 8 7 8 8 10 9 8 8 7 6 6 7 7 7 7 6 6 7 10 9 7 7 5 3 3 3 3 2 2 2 2 1 3 9 6 5 4 4 7 7 6 3 3 4 4 6 7 8 9
11 11 10 9 9 11 11 9 9 10 10 9 10 11 11 11 10 10 11 12 13 13 12 12 12 11 11 12 11 12 12 13 13 12 11 11 11 11 8 7 7 7 7 6 6 7 6 5 6 7 10 8 6 7 11 10 8 7 5 3 4 3 2 2 1 2 2 1 2 4 8 6 5 5 8 7 5 5 4 4 4 4 7 7 8
6 7 10 10 7 6 5 7 9 11 10 9 9 10 10 10 10 9 10 12 14 14 14 13 11 11 11 11 11 12 12 13 13 10 10 10 8 7 8 8 6 7 7 6 6 6 7 6 5 6 7 6 6 5 7 11 8 8 8 4 3 3 4 4 2 2 1 2 3 3 4 7 9 8 8 7 6 6 4 4 3 4 5 8 7
8 7 6 8 9 11 12 12 12 11 8 8 8 8 9 9 9 7 10 11 11 10 10 10 9 10 10 11 11 12 14 11 11 11 10 9 9 9 8 8 7 6 6 6 6 5 6 5 6 6 6 5 6 7 7 11 11 9 9 8 4 4 4 3 4 2 2 3 3 4 5 6 9 10 10 9 7 8 6 4 4 5 4 7 8
1 6 8 7 7 7 7 8 8 9 9 8 8 9 9 8 7 10 12 10 8 9 9 8 10 11 11 11 11 9 10 10 9 10 10 9 7 8 8 8 7 7 7 7 5 6 6 6 5 6 6 7 8 11 7 11 12 11 10 10 7 5 5 5 3 4 4 4 5 3 4 6 11 11 10 9 10 9 9 5 6 8 10 11 7
5 4 5 9 6 7 8 9 7 6 7 7 8 9 8 7 9 13 10 6 5 5 8 9 10 10 11 11 10 11 11 8 9 9 10 9 7 8 7 7 8 7 7 7 7 6 5 6 6 6 6 6 6 7 11 9 12 12 12 10 10 7 7 4 5 5 5 6 4 4 4 7 6 7 9 11 10 11 8 6 10 10 10 11 6
5 7 8 7 8 7 8 6 6 7 7 7 10 10 8 8 12 8 3 4 6 6 6 7 7 8 8 8 9 9 9 8 10 10 9 9 8 7 7 8 8 8 7 7 7 6 6 6 7 7 6 6 6 7 9 12 10 14 12 12 12 11 9 5 5 6 6 4 5 4 4 6 8 11 11 10 11 10 7 10 10 11 10 7 2
6 4 3 4 8 9 6 6 4 5 3 4 4 6 5 6 4 3 6 6 7 8 8 8 7 7 8 8 8 8 9 9 9 10 10 8 7 7 8 6 7 7 7 8 7 7 8 8 7 8 8 7 7 7 6 9 13 13 14 13 13 12 11 9 5 6 4 5 6 7 7 9 11 12 11 9 8 9 10 8 9 10 7 3 4
4 3 5 3 2 3 5 5 1 1 3 4 5 7 7 5 3 4 4 7 8 8 7 7 7 7 8 9 9 7 7 7 8 7 8 9 10 9 9 8 7 7 7 8 7 7 7 7 8 8 8 8 7 6 7 6 7 9 10 13 14 13 11 11 10 7 7 7 8 8 10 11 10 8 6 5 6 7 8 8 9 7 3 3 3
3 3 6 6 6 4 4 5 4 1 3 4 5 3 6 6 5 4 5 7 7 8 8 7 8 8 7 8 10 8 7 6 6 5 6 7 7 8 8 8 8 8 8 8 7 7 8 8 9 9 8 7 7 7 7 7 7 7 7 8 8 9 10 8 6 7 7 7 7 6 6 7 7 11 11 11 10 8 4 3 3 3 3 3 3
3 4 4 5 7 6 5 5 5 2 3 4 5 5 5 6 5 6 6 7 8 9 10 9 9 9 8 8 8 10 10 8 7 8 8 7 7 8 9 10 11 11 10 10 9 9 10 10 10 9 7 7 7 7 8 9 9 9 8 8 7 7 7 8 8 7 7 6 4 5 6 4 4 5 5 2 1 0 1 3 4 3 3 3 2
5 4 6 8 6 6 6 6 5 3 4 4 5 5 5 7 7 7 8 8 7 6 7 7 7 7 7 6 7 8 8 8 8 7 8 9 11 10 10 9 9 9 11 12 11 11 11 10 10 9 9 9 8 10 13 13 13 13 12 10 8 9 8 7 10 9 4 3 3 4 5 5 4 3 3 5 4 2 3 4 3 3 4 4 3
2 4 5 5 6 8 6 6 5 4 5 5 5 5 5 6 7 7 7 9 8 7 6 7 7 7 7 7 6 7 7 7 8 8 7 5 6 8 9 10 10 12 15 14 12 12 12 10 9 10 10 12 12 14 13 14 16 16 17 17 15 14 13 11 9 10 6 4 5 5 6 7 6 3 3 4 5 4 4 3 4 3 2 4 3
4 5 3 5 6 6 7 7 6 5 5 6 6 5 5 5 6 7 7 8 9 8 7 7 6 7 9 9 7 7 7 7 7 7 7 7 7 6 10 12 10 10 13 16 16 16 13 12 12 10 11 17 16 12 11 15 17 18 18 18 17 15 14 13 9 5 3 6 7 6 7 6 6 4 4 5 5 5 4 5 4 3 3 2 2
Wind_Direction
169 143 129 126 121 116 111 119 121 120 124 116 108 106 103 99 96 97 81 100 115 112 111 115 106 80 73 84 122 325 112 29 3 335 43 39 57 58 63 53 47 48 53 53 46 50 53 48 49 39 47 58 59 55 50 49 41 35 29 29 32 35 26 13 7 348 25 13 15 39 28 49 61 51 48 43 41 35 34 34 31 33 31 26 21
135 113 113 112 117 109 103 119 125 116 121 119 123 126 109 101 105 116 94 97 118 126 130 120 151 153 148 176 190 219 127 109 64 27 45 49 61 57 44 43 49 46 54 58 51 56 55 51 46 39 44 59 64 56 53 50 46 42 33 38 26 41 37 15 8 8 29 28 347 333 360 5 65 55 44 34 36 32 32 29 28 30 31 21 16
139 133 132 136 133 112 109 123 129 134 139 136 139 112 102 104 117 124 118 105 116 125 123 143 148 162 126 197 176 246 282 13 89 42 69 69 50 56 67 65 62 54 48 53 59 53 60 58 45 41 43 52 60 49 46 44 43 41 39 46 28 30 43 23 22 34 35 323 331 59 4 356 322 15 38 29 28 31 28 27 22 25 28 19 14
151 151 154 150 141 123 122 128 136 129 129 137 134 114 112 117 126 129 129 119 120 133 139 142 134 141 124 115 52 117 180 19 86 76 96 98 88 91 51 68 66 57 53 61 60 55 61 62 54 48 48 53 66 61 50 51 46 45 44 42 47 46 24 19 26 26 30 15 36 53 342 66 355 355 339 318 18 33 30 25 20 19 21 16 14
155 159 155 151 146 145 144 146 143 137 144 147 128 131 136 148 154 153 150 147 139 128 123 119 103 83 61 41 38 32 24 26 46 37 52 79 65 47 31 62 65 60 61 63 66 64 57 57 60 56 56 51 60 62 56 51 51 51 49 52 46 58 38 20 21 27 34 35 73 45 13 33 19 295 320 292 10 22 25 21 19 15 17 14 10
159 164 162 161 159 148 145 146 146 143 148 151 139 140 140 151 148 151 139 141 137 140 149 120 123 120 95 104 91 56 74 78 97 117 89 93 106 211 49 64 70 66 67 67 65 63 57 55 57 60 58 55 59 66 64 58 54 54 46 56 54 43 69 45 28 15 33 36 39 61 105 125 313 295 32 326 4 28 32 19 17 14 12 9 6
157 155 158 158 163 148 150 154 153 149 159 143 138 143 144 155 171 162 161 149 132 146 133 116 116 136 151 158 164 164 153 245 240 190 132 174 154 91 81 59 72 80 67 72 69 65 63 56 58 63 64 63 63 66 63 61 59 58 50 53 54 55 48 59 42 5 18 36 36 43 54 54 53 42 20 309 347 328 44 6 9 8 5 7 5
158 162 165 164 163 156 160 163 153 158 148 136 139 145 153 165 170 171 163 159 167 142 131 139 139 148 140 149 163 162 170 188 193 185 180 165 114 99 80 67 71 79 81 71 69 68 66 60 60 60 62 62 68 66 70 66 64 56 58 55 51 51 57 63 54 36 57 12 25 41 37 44 54 64 49 74 70 321 333 354 27 1 359 9 1
160 164 167 168 164 160 157 157 163 146 140 145 153 163 162 168 160 134 142 139 153 153 149 147 142 155 149 153 155 193 176 191 184 125 146 140 113 103 86 80 78 70 76 81 70 68 68 68 63 64 63 60 68 69 68 71 72 67 56 50 50 45 47 56 59 45 45 39 31 25 32 31 36 61 52 37 68 352 297 353 337 340 352 10 360
167 167 165 167 163 159 163 154 149 152 154 155 156 158 155 154 134 146 153 152 159 152 151 142 144 142 134 153 155 196 203 188 126 142 144 136 131 128 105 93 89 78 71 75 77 70 67 66 66 66 67 67 68 72 73 66 65 68 68 68 61 60 42 50 65 59 60 52 56 50 42 15 31 21 29 24 30 70 16 340 349 347 342 336 351
169 166 164 163 161 158 157 152 154 144 154 152 159 166 154 148 145 153 173 170 158 150 145 154 160 158 157 169 168 185 207 171 141 144 94 110 121 139 110 98 89 91 85 72 77 73 66 65 71 69 66 66 67 69 70 73 65 67 68 68 65 64 52 50 48 53 64 59 52 56 55 55 54 40 8 11 28 353 349 335 323 325 312 322 339
164 157 154 151 150 158 155 148 150 148 148 157 169 163 152 154 152 159 178 181 164 156 155 161 163 167 167 175 182 197 186 183 184 189 202 166 154 145 121 99 91 86 84 85 72 73 73 63 65 66 68 70 69 73 72 71 69 64 59 68 68 62 55 54 49 48 53 65 59 55 57 53 45 42 0 20 19 333 5 326 335 336 333 330 314
162 158 155 159 159 163 161 157 152 148 160 166 171 163 156 159 159 157 190 189 174 164 169 168 167 178 185 196 205 199 198 197 198 207 206 179 181 149 125 120 119 95 94 92 82 82 84 74 65 66 65 65 72 70 67 69 69 66 66 62 63 69 69 63 57 56 58 68 68 51 55 45 38 19 28 17 12 15 30 9 342 344 317 313 318
163 161 162 163 164 166 164 164 163 158 169 169 167 160 164 166 168 163 186 188 183 182 182 181 195 193 198 201 211 205 211 204 210 202 203 187 186 162 148 141 135 134 121 106 114 99 85 86 83 75 74 71 72 71 66 62 67 72 71 70 65 66 67 61 55 53 57 59 68 62 47 46 32 23 25 33 21 30 20 16 335 334 318 309 308
162 164 167 168 168 166 167 167 165 164 171 167 165 166 165 167 173 175 181 199 188 194 192 195 205 203 199 203 205 203 204 206 213 199 182 165 169 134 130 132 131 139 121 124 112 102 98 88 88 83 79 76 69 64 60 55 54 57 55 62 66 67 66 63 56 65 59 58 57 65 60 45 33 27 31 29 33 38 38 3 13 341 317 301 320
165 166 168 170 167 166 165 166 166 165 171 170 169 168 165 173 179 180 183 194 196 192 203 200 210 211 193 189 210 198 192 191 171 160 157 158 155 138 136 135 135 127 126 121 115 110 105 97 90 93 90 81 73 74 69 65 59 63 52 54 49 45 63 55 61 74 69 66 63 63 63 45 40 36 34 35 37 28 27 15 12 12 354 329 314
165 169 170 168 167 170 171 166 165 167 171 177 174 173 173 175 179 185 193 194 197 194 202 208 209 203 207 191 186 184 175 195 164 165 160 153 140 139 135 139 132 129 127 124 120 107 109 103 99 97 89 90 84 78 80 76 69 62 66 60 52 42 62 55 64 75 78 71 62 72 78 60 39 42 36 31 29 26 17 14 22 19 5 357 341
171 170 169 169 171 172 174 171 167 172 175 179 179 176 176 176 180 184 193 198 207 197 202 208 208 213 216 215 197 177 183 197 172 159 148 132 130 132 132 134 145 140 130 131 124 121 108 105 106 100 97 88 91 91 91 86 76 68 74 69 57 60 60 53 54 78 74 76 69 69 71 66 49 55 43 29 25 20 13 9 10 5 26 27 337
162 166 168 172 172 175 176 175 169 172 178 180 181 176 175 182 184 185 192 200 201 200 196 202 198 205 206 211 209 206 190 181 182 161 148 137 145 152 152 149 139 137 128 128 123 115 115 115 112 105 96 94 78 70 83 85 89 80 75 76 51 63 67 63 35 71 67 77 78 88 86 77 65 67 54 31 19 8 3 352 355 22 7 27 349
167 169 174 176 176 176 176 172 172 173 177 182 182 178 180 187 187 193 198 199 201 203 198 199 207 200 208 209 220 195 198 185 189 171 150 151 157 154 148 144 153 140 129 126 125 128 129 124 117 111 102 96 84 65 80 76 70 84 91 73 57 71 71 70 48 41 70 81 88 93 101 98 77 73 54 31 25 354 349 346 347 2 353 355 347
172 172 174 176 175 176 178 176 173 169 174 180 183 185 186 186 192 195 195 200 203 207 199 207 199 210 206 204 211 213 218 209 201 192 141 156 154 152 151 148 132 136 131 126 131 137 135 130 124 118 114 103 90 80 79 83 80 81 68 78 66 78 79 57 74 47 36 73 96 107 110 110 90 74 46 21 13 353 347 347 335 353 360 352 353
173 174 172 173 173 175 173 174 172 170 175 183 187 188 190 190 194 196 197 198 201 207 202 206 202 204 212 217 215 212 216 206 201 167 142 154 155 151 148 137 135 141 133 131 136 139 134 132 126 125 126 118 117 122 109 97 97 78 56 55 74 72 77 76 69 51 355 43 105 112 123 128 114 113 77 20 4 354 351 352 347 352 345 334 317
173 173 170 171 173 172 173 174 178 181 181 183 187 191 194 197 194 194 194 204 201 203 202 200 201 205 215 218 214 217 218 205 165 150 153 154 152 148 146 138 137 137 134 136 143 141 139 135 130 135 135 134 142 154 148 113 110 103 100 87 87 88 90 87 76 224 292 69 74 119 159 185 189 90 345 323 11 355 351 348 343 344 335 317 308
169 170 167 167 170 168 168 175 179 184 186 187 189 192 195 198 198 193 198 202 203 203 199 198 202 209 214 212 212 217 216 185 153 158 154 156 150 149 145 137 140 138 135 139 140 140 137 136 136 131 115 102 77 60 42 45 79 116 119 101 75 89 120 123 117 209 284 78 111 124 189 213 194 103 340 2 354 344 344 345 347 335 324 313 300
164 167 166 162 165 171 177 179 183 186 190 189 187 192 195 200 198 198 204 202 200 199 196 200 200 207 212 212 216 212 209 181 165 162 158 155 154 150 149 143 141 139 139 140 140 136 135 134 127 122 112 101 100 91 79 63 54 57 66 61 71 95 110 97 108 36 73 96 105 156 209 220 163 101 344 16 325 345 325 346 338 325 323 310 311
167 166 162 169 176 177 178 182 186 188 189 191 191 190 196 200 202 200 202 203 204 193 197 197 201 204 209 211 215 210 203 184 171 166 162 160 155 152 150 149 145 142 144 146 147 146 135 124 121 120 115 109 97 88 83 84 68 59 63 61 44 17 119 116 94 87 91 103 120 170 229 176 186 134 183 230 275 295 312 338 335 327 319 314 310
168 171 175 169 171 180 183 184 187 188 190 191 192 193 193 198 203 202 202 200 200 193 194 196 200 205 205 208 204 205 195 180 172 166 159 156 157 156 152 153 153 148 148 147 134 124 125 124 122 115 114 117 108 92 91 77 69 66 68 65 41 31 5 88 109 97 111 128 132 107 85 156 179 173 170 208 243 291 322 329 322 312 311 318 318
169 168 170 176 181 182 184 186 188 189 191 192 194 195 195 196 200 201 201 199 197 193 193 195 197 205 207 207 204 200 186 176 166 159 160 159 157 158 157 152 148 148 148 146 140 132 127 119 123 114 116 112 106 96 95 88 79 71 73 56 55 32 23 350 90 105 129 148 155 132 321 180 187 183 178 209 202 306 307 326 315 310 313 323 320
172 179 180 181 182 184 185 186 189 188 189 193 196 199 200 203 205 202 197 198 192 190 194 194 198 204 209 206 199 186 169 161 159 158 159 162 162 159 155 154 149 145 144 142 138 135 129 117 109 114 113 110 108 118 133 124 102 73 75 77 44 42 22 0 340 129 159 185 204 196 248 237 199 191 176 85 24 358 332 325 315 309 318 326 321
181 183 185 186 187 186 186 185 186 188 190 193 196 199 198 200 203 200 199 201 184 192 193 196 200 206 208 203 185 169 166 163 162 166 167 163 161 160 157 155 152 146 142 141 138 139 137 139 131 123 119 117 124 167 132 110 102 124 107 72 13 1 305 325 301 195 189 226 218 221 242 281 317 11 89 47 359 350 357 12 344 326 323 324 323
184 185 186 189 191 191 187 185 189 190 191 193 197 198 199 200 202 199 201 196 187 194 197 197 204 206 205 190 174 172 163 169 171 164 162 162 163 160 158 155 152 149 148 149 143 144 147 146 143 141 137 137 150 182 126 117 90 75 124 138 6 293 273 293 261 253 216 223 235 239 245 271 19 74 59 22 348 350 348 1 4 358 353 342 321
183 186 188 192 194 193 191 191 192 194 193 194 196 197 195 200 199 200 201 193 193 195 198 202 205 200 194 184 179 169 170 170 166 169 167 165 157 158 160 159 155 155 155 146 151 155 152 148 141 138 142 155 174 155 140 140 136 130 273 179 226 254 284 271 262 256 266 264 246 236 241 248 124 143 101 357 352 354 353 355 355 345 339 331 331
181 183 189 193 196 196 194 196 196 195 195 198 194 191 197 198 196 201 195 190 195 197 200 203 203 194 191 184 173 173 173 170 173 168 164 158 159 159 161 162 169 165 148 155 160 151 157 154 148 151 158 169 171 163 166 157 176 199 247 274 238 250 251 263 263 261 262 265 264 248 236 307 26 48 22 357 3 346 346 348 341 334 328 327 322
183 185 190 196 198 200 197 194 196 198 196 196 192 193 197 194 195 195 191 195 196 202 201 204 198 194 187 181 176 173 175 175 167 164 162 162 164 171 169 166 155 153 156 155 157 161 159 162 163 161 165 169 185 189 179 178 187 216 233 241 240 240 246 252 261 266 265 260 255 242 206 162 285 336 322 349 347 345 339 335 329 331 318 316 321
185 189 195 197 199 202 198 193 200 199 196 190 193 195 193 193 193 194 197 196 200 200 203 202 196 194 182 178 176 176 175 170 168 164 165 168 169 164 166 169 166 165 164 166 167 167 172 169 167 160 158 177 198 187 183 181 196 222 245 249 223 240 250 265 269 263 258 255 254 234 186 169 194 238 261 313 314 315 331 318 322 322 310 300 312
195 192 196 195 198 199 198 198 195 190 189 187 191 190 188 195 192 196 197 199 199 201 204 201 197 189 185 181 176 177 173 167 166 166 168 171 172 171 171 170 163 159 153 147 161 162 169 171 170 165 165 185 211 188 191 187 197 223 248 260 234 242 256 271 288 283 279 265 235 172 152 162 194 224 238 251 270 278 314 319 328 320 322 325 316
199 196 197 197 195 196 200 191 181 186 184 191 190 185 189 190 191 198 197 199 198 202 205 200 200 192 188 182 178 174 171 169 168 169 174 175 173 174 173 165 161 167 162 172 173 176 172 167 170 177 177 188 200 199 197 194 198 216 237 246 250 250 250 270 278 296 290 266 165 152 152 167 197 226 225 217 238 269 292 318 322 316 313 320 312
198 199 197 193 195 196 192 183 181 184 187 187 184 184 186 186 192 197 197 199 197 206 206 200 200 193 188 182 177 173 170 169 171 178 179 177 173 171 174 174 170 169 176 180 171 166 170 175 175 184 186 181 207 209 202 201 200 212 220 216 222 218 247 246 270 278 295 213 174 164 161 174 194 233 229 226 224 237 279 300 316 315 319 319 308
185 181 188 190 190 187 186 184 177 185 193 182 178 178 182 190 190 187 191 195 202 208 205 202 200 191 185 180 175 173 171 172 178 180 175 173 178 179 174 170 170 167 171 165 169 167 173 185 190 184 194 189 198 206 203 203 201 212 223 213 211 202 232 260 286 306 304 296 257 186 183 189 199 231 230 235 231 229 251 273 274 299 302 302 290
186 192 186 182 169 154 160 177 184 198 190 179 171 172 182 190 196 185 185 196 204 206 205 204 193 182 179 174 173 174 175 175 177 172 174 175 165 158 169 169 168 166 163 171 174 176 177 191 192 188 203 190 190 206 203 203 200 206 222 214 196 181 226 247 270 242 287 299 250 277 236 212 231 243 245 250 249 241 247 261 246 260 282 288 290
183 184 152 148 164 170 180 186 194 194 185 181 174 176 193 200 196 191 205 208 203 199 198 194 179 173 173 175 174 176 175 177 172 170 165 164 169 169 163 164 163 161 157 169 184 187 187 192 192 200 205 196 193 194 208 200 204 207 216 217 199 214 212 209 233 252 243 251 261 233 249 251 249 253 258 265 275 270 262 264 254 247 234 262 291
100 153 155 159 172 183 184 191 194 183 177 177 176 186 199 201 196 210 218 214 199 191 183 171 170 175 175 174 174 171 167 162 159 156 168 170 168 163 164 161 158 161 169 181 185 190 195 204 201 203 208 205 207 201 196 204 204 209 213 217 209 220 196 190 220 256 250 250 247 246 241 244 243 250 263 284 291 299 307 303 274 265 279 286 287
131 171 193 159 165 180 188 198 198 183 176 177 175 189 204 200 205 221 222 212 195 184 175 171 170 170 173 171 166 161 161 159 161 163 155 161 166 160 161 156 159 166 174 183 190 193 196 210 221 219 216 211 208 214 196 198 203 206 211 215 219 219 204 194 194 235 237 242 242 243 256 262 267 274 281 286 298 306 310 288 286 296 295 295 299
176 176 180 170 170 183 193 207 199 193 186 177 175 194 199 193 218 227 190 156 153 153 151 153 159 159 152 154 154 155 153 154 157 156 161 161 165 164 160 167 168 171 177 188 197 193 197 208 217 227 224 220 216 215 205 200 200 205 210 215 219 220 202 203 197 222 240 241 255 254 252 271 288 291 293 300 303 301 284 282 292 292 294 304 337
167 180 163 180 176 187 194 203 221 220 205 180 172 154 160 191 226 155 159 150 150 148 148 150 150 146 145 144 147 154 157 160 162 161 160 163 160 160 165 176 168 177 183 192 200 192 202 211 214 222 224 222 216 212 217 210 207 205 210 214 220 219 216 203 211 234 233 236 241 255 281 292 292 293 298 305 300 289 282 282 289 292 302 343 335
107 134 151 142 95 136 149 163 149 178 153 140 155 153 157 193 166 150 145 136 134 134 135 142 140 143 147 146 147 154 160 164 162 169 168 167 166 172 175 174 178 187 190 195 200 198 209 211 218 222 223 222 213 211 218 219 215 214 214 218 220 220 219 213 216 232 236 245 255 272 282 287 289 292 302 299 288 281 286 296 290 288 315 327 325
141 180 129 123 132 124 132 138 134 135 134 138 136 145 146 150 146 141 130 127 124 127 131 136 144 144 148 153 156 162 160 160 161 159 162 167 174 173 172 176 184 188 194 201 202 203 211 215 220 223 223 218 219 217 218 217 215 214 218 219 221 229 230 228 231 240 247 249 254 254 259 268 280 288 283 272 268 277 292 295 280 291 302 319 294
134 145 120 122 133 139 141 131 136 160 141 133 131 133 140 137 132 130 127 125 133 143 148 155 157 158 162 165 165 163 160 164 173 171 169 177 186 179 179 187 189 193 192 203 204 208 212 212 219 218 212 214 222 222 219 213 210 207 212 210 212 215 214 214 222 230 229 239 253 266 278 293 304 293 276 292 279 256 272 270 276 290 310 314 314
123 159 146 146 146 141 149 138 156 170 145 129 136 141 144 141 142 140 137 134 140 145 143 148 152 154 164 167 164 167 172 170 177 187 197 188 180 187 197 207 212 195 194 194 201 212 214 215 212 207 198 215 219 221 226 208 206 199 199 200 206 214 213 216 221 217 215 223 242 270 282 282 266 276 324 319 315 321 268 257 279 301 329 328 337
146 144 150 137 150 147 153 154 166 169 153 146 152 157 156 146 142 145 141 138 143 142 147 157 162 165 163 164 168 177 176 178 180 188 191 223 247 220 206 198 210 211 214 215 201 207 208 204 209 218 200 205 215 222 223 201 208 208 209 207 209 207 207 210 217 208 195 221 234 243 253 257 271 286 294 295 280 243 241 273 289 291 326 325 323
139 123 134 157 165 162 155 160 171 169 159 156 158 164 155 156 149 153 150 147 147 150 160 163 167 178 179 178 176 180 187 186 188 186 191 199 216 245 238 229 226 217 213 219 219 226 223 213 204 222 223 227 235 236 203 200 206 210 210 212 215 215 211 211 184 143 182 210 230 236 249 251 255 250 253 256 258 237 230 228 256 274 296 282 288